Weather in Leningradskoe

Kazakhstan     53˚32′04″N   71˚32′38″E
temp.,
°C
wind,
m/s
gust,
m/s
humid.,
%
clouds,
%
prec.,
mm/h
press.,
hPa
HPBL,
m
29 november, sun
sun2900:00−13˚nnw5895100 0.1 1036276
03:00−14˚nnw61095100 0.0 1037296
06:00−14˚nnw6995100 0.1 1039315
09:00−14˚nnw6994100 0.0 1041301
12:00−14˚nw71093100 0.0 1042306
15:00−14˚nw699292 0.0 1043307
18:00−16˚nw599589 0.0 1046228
21:00−17˚nw479771 0.0 1047153
30 november, mon
mon3000:00−18˚wnw469772 0.0 1048131
03:00−19˚nw469771 0.0 1048121
06:00−19˚nw459873 0.0 1049107
09:00−20˚nw349883 0.0 105076
12:00−18˚nw349575 0.0 1051134
15:00−17˚nw349468 0.0 1051156
18:00−19˚nw239762 0.0 105224
21:00−19˚nw129741 0.0 105220
1 december, tue
tue100:00−19˚nnw229849 0.0 105220
03:00−20˚nnw119953 0.0 105320
06:00−20˚nnw119953 0.0 105320
09:00−20˚ne019948 0.0 105320
12:00−17˚se119324 0.0 105441
15:00−16˚e11920 0.0 105320
18:00−17˚ese12920 0.0 105420
21:00−17˚se22910 0.0 105320
2 december, wed
wed200:00−17˚sse23900 0.0 105320
03:00−17˚sse12920 0.0 105220
06:00−16˚se22930 0.0 105220
09:00−16˚se23940 0.0 105120
12:00−14˚se22940 0.0 105073
15:00−13˚ese22930 0.0 104836
18:00−16˚ese33940 0.0 104725
21:00−17˚se33930 0.0 104630
3 december, thu
thu300:00−17˚se33920 0.0 104425
03:00−18˚ese33930 0.0 104324
06:00−18˚ese33940 0.0 104236
09:00−19˚ese349442 0.0 104245
12:00−17˚ese359036 0.0 1041185
15:00−16˚e35920 0.0 1041162
18:00−18˚e34935 0.0 104063
21:00−19˚e349458 0.0 104076